Regional Weather Roundup
Issued by NWS Charleston, SC

Current Version | Previous Version | Graphics & Text | Print | Product List | Glossary On
Versions: 1 2 3 4 5 6 7 8 9 10 11 12 13 14 15 16 17 18 19 20 21 22 23 24 25 26 27 28 29 30 31 32 33 34 35 36 37 38 39 40 41 42 43 44 45 46 47 48 49 50
644 ASUS42 KCHS 201027 RWRCHS REGIONAL WEATHER ROUNDUP NATIONAL WEATHER SERVICE CHARLESTON SC 500 AM EST MON FEB 20 2017 NOTE: "FAIR" INDICATES FEW OR NO CLOUDS BELOW 12,000 FEET WITH NO SIGNIFICANT WEATHER AND/OR OBSTRUCTIONS TO VISIBILITY. NOT ALL STATIONS ARE QUALITY CONTROLLED. USE DATA WITH CAUTION... ESPECIALLY DEWPOINT OBSERVATIONS. SCZ027-030-031-034>040-042>050-201100- ...SOUTHEAST SOUTH CAROLINA... CITY SKY/WX TMP DP RH WIND PRES REMARKS N CHARLESTON CLEAR 47 45 93 N7 30.12R WATERFRONT PRK N/A 57 51 80 VRB3 30.11R MOUNT PLEASANT LGT RAIN 48 46 93 CALM 30.13R JOHNS ISLAND FAIR 52 48 87 N6 30.13R PINOPOLIS N/A 57 52 82 N5 30.04S MONCKS CORNER FAIR 48 46 93 N3 30.13S SUMMERVILLE FAIR 46 45 93 CALM 30.15R BEAUFORT MCAS CLEAR 50 50 100 N3 30.12R BEAUFORT ARPT FAIR 52 52 100 CALM 30.12R HILTON HEAD IS CLEAR 48 46 93 CALM 30.13R WALTERBORO SUNNY 43 41 93 CALM 30.14R ALLENDALE FAIR 46 46 100 N3 30.13R ...SOUTHERN MIDLANDS AND PEE DEE... CITY SKY/WX TMP DP RH WIND PRES REMARKS GEORGETOWN FAIR 48 45 87 CALM 30.14R KINGSTREE FAIR 43 39 87 CALM 30.14R ORANGEBURG CLEAR 47 45 93 CALM 30.14R BARNWELL FAIR 48 45 87 CALM 30.14R AIKEN FAIR 46 41 81 NE5 30.17R MANNING FAIR 45 41 87 MISG 30.14R COLUMBIA CLEAR 44 40 85 W5 30.15R SUMTER CLEAR 47 41 79 N3 30.12R FLORENCE CLEAR 50 43 77 N6 30.14R MYRTLE BEACH CLEAR 52 46 80 N7 30.13R N MYRTLE BEACH CLEAR 51 45 79 N6 30.12R $$ GAZ063-065-086>088-099>101-113>116-118-119-134>141-150-201100- ...SOUTHEAST GEORGIA... CITY SKY/WX TMP DP RH WIND PRES REMARKS SAVANNAH ARPT CLEAR 50 47 89 CALM 30.12R HUNTER AAF CLEAR 51 50 99 CALM 30.09R FORT STEWART CLEAR 48 46 94 CALM 30.10R STATESBORO CLEAR 46 32 57 CALM 30.13R SYLVANIA SUNNY N/A N/A N/A CALM 30.14R CLAXTON FAIR N/A N/A N/A CALM 30.13R HAZE ...CSRA...CENTRAL AND FAR SOUTHEAST GEORGIA... CITY SKY/WX TMP DP RH WIND PRES REMARKS THOMSON CLEAR 42 42 100 CALM 30.19R AUGUSTA-BUSH CLEAR 44 41 89 NW3 30.13R AUGUSTA-DANIEL CLEAR 52 46 80 N6 30.14R SWAINSBORO FAIR 46 45 93 CALM 30.14R VIDALIA CLEAR 54 52 94 CALM 30.13R EASTMAN FOG 46 46 100 CALM 30.14F VSB 1/2 HAZLEHURST FAIR 52 52 100 CALM 30.11S ALMA PTCLDY 50 49 96 CALM 30.12R WAYCROSS CLEAR 52 52 100 CALM 30.12R JESUP FAIR 48 45 87 CALM 30.13R BAXLEY FAIR 48 48 100 CALM 30.12R BRUNSWICK CLEAR 52 52 100 CALM 30.12R FOG SAINT SIMONS CLEAR 54 52 93 CALM 30.10S $$ SCZ027-028-034-036>038-045-046-048>050-GAZ119-141-201100- ...LAKE AND SUPPLEMENTAL COASTAL OBSERVATIONS... STATION/POSITION TIME TEMP WIND PRES WAVE SWELL AIR SEA DIR/SP/G HT/PER HT/PER/DIR (UTC) (F) (DEG/KT/KT) (MB) (FT/S) (FT/S/D) WINYAH BAY 0945 53 330/ 5 1020.0R LAKE MURRAY 0950 51 280/ 2/ 3 1020.7R ACE BASIN NERRS 0930 48 CALM 1019.0S FORT PULASKI 1000 57 60 300/ 1/ 1 1019.9 SAPELO ISLAND 1000 54 CALM 1019.0 $$ ANZ835-935-AMZ111-154-330-350-352-354-370-450-454-472-201100- ...C-MAN AND BUOY OBSERVATIONS... STATION/POSITION TIME TEMP WIND PRES WAVE SWELL AIR SEA DIR/SP/G HT/PER HT/PER/DIR (UTC) (F) (DEG/KT/KT) (MB) (FT/S) (FT/S/D) BUOY 41004 0950 64 69 340/ 10/ 10 1019.2R 1/10 BUOY 41008 0950 61 61 350/ 4/ 4 1019.1S 1 FOLLY BEACH CMAN 1000 55 340/ 6/ 7 1020.4R CAPERS NEARSHORE 0908 59 59 340/ 8/ 10 1019.4R FRIPP NEARSHORE 1008 59 60 30/ 4/ 6 1019.3R STATION/POSITION TIME TEMP WIND PRES WAVE SWELL AIR SEA DIR/SP/G HT/PER HT/PER/DIR (UTC) (F) (DEG/KT/KT) (MB) (FT/S) (FT/S/D) 5E ST. MARYS GA 1000 63 N/A 1 FRYING PAN BUOY 1010 61 65 340/ 14/ 16 1019.6 BUOY 41025 0950 63 65 340/ 8/ 8 1018.4R 1/ 6 2/100/ 6 CAPE LOOKOUT NC 1000 55 330/ 8/ 9 1018.6R BUOY 41002 0950 71 72 10/ 19/ 23 1015.9R 6/ 7 2/170/12 BUOY 41010 NOT AVBL ST AUGUSTINE FL 1000 59 66 340/ 2/ 2 1019.9R $$

USA.gov is the U.S. government's official web portal to all federal, state and local government web resources and services.